Regional Weather Roundup
Issued by NWS Charleston, SC

Current Version | Previous Version | Graphics & Text | Print | Product List | Glossary On
Versions: 1 2 3 4 5 6 7 8 9 10 11 12 13 14 15 16 17 18 19 20 21 22 23 24 25 26 27 28 29 30 31 32 33 34 35 36 37 38 39 40 41 42 43 44 45 46 47 48 49 50
000 ASUS42 KCHS 192327 RWRCHS REGIONAL WEATHER ROUNDUP NATIONAL WEATHER SERVICE CHARLESTON SC 700 PM EDT SAT AUG 19 2017 NOTE: "FAIR" INDICATES FEW OR NO CLOUDS BELOW 12,000 FEET WITH NO SIGNIFICANT WEATHER AND/OR OBSTRUCTIONS TO VISIBILITY. NOT ALL STATIONS ARE QUALITY CONTROLLED. USE DATA WITH CAUTION... ESPECIALLY DEWPOINT OBSERVATIONS. SCZ027-030-031-034>040-042>050-200000- ...SOUTHEAST SOUTH CAROLINA... CITY SKY/WX TMP DP RH WIND PRES REMARKS N CHARLESTON MOSUNNY 88 77 69 S9 29.92R HX 100 WATERFRONT PRK N/A 87 80 79 S9 29.77R HX 103 JOHNS ISLAND FAIR 86 81 84 S10 29.93S HX 102 PINOPOLIS N/A 93 72 49 VRB3 29.84S HX 100 MONCKS CORNER FAIR 84 72 65 CALM 29.92R SUMMERVILLE FAIR 88 73 62 CALM 29.93R HX 96 BEAUFORT MCAS SUNNY 89 79 72 S5 29.92S HX 104 BEAUFORT ARPT FAIR 86 77 74 S9 29.93R HX 97 HILTON HEAD IS SUNNY 86 79 79 S7 29.94R HX 99 WALTERBORO CLEAR 90 70 51 CALM 29.93S HX 95 ALLENDALE NOT AVBL ...SOUTHERN MIDLANDS AND PEE DEE... CITY SKY/WX TMP DP RH WIND PRES REMARKS GEORGETOWN FAIR 84 81 89 S6 29.94S HX 98 KINGSTREE FAIR 90 70 51 CALM 29.92R HX 95 ORANGEBURG SUNNY 91 63 39 W6 29.93R HX 92 BARNWELL FAIR 91 70 49 CALM 29.93S HX 97 AIKEN FAIR 86 68 54 SW6 29.98R MANNING FAIR 86 77 74 SW20 29.92S HX 97 COLUMBIA MOSUNNY 94 68 42 SW5 29.90S HX 98 SUMTER MOSUNNY 92 63 38 SW8 29.89S HX 93 FLORENCE PTSUNNY 92 68 45 S6 29.91S HX 96 MYRTLE BEACH MOSUNNY 86 75 70 S9 29.94S HX 95 N MYRTLE BEACH MOSUNNY 83 76 79 SE6 29.93F HX 91 $$ GAZ063-065-086>088-099>101-113>116-118-119-134>141-150-200000- ...SOUTHEAST GEORGIA... CITY SKY/WX TMP DP RH WIND PRES REMARKS SAVANNAH ARPT CLOUDY 90 76 63 S12 29.92R HX 101 HUNTER AAF CLOUDY 87 76 71 S7 29.90S HX 97 FORT STEWART CLOUDY 95 64 35 W7 29.89S HX 97 STATESBORO SUNNY 90 66 44 CALM 29.93R HX 93 SYLVANIA CLEAR 91 71 52 CALM 29.94R HX 97 CLAXTON FAIR 93 69 45 CALM 29.92R HX 98 ...CSRA...CENTRAL AND FAR SOUTHEAST GEORGIA... CITY SKY/WX TMP DP RH WIND PRES REMARKS THOMSON SUNNY 87 70 58 CALM 30.00R HX 92 AUGUSTA-BUSH SUNNY 92 67 43 W5 29.92R HX 95 AUGUSTA-DANIEL SUNNY 91 64 40 VRB5 29.94S HX 92 SWAINSBORO FAIR 90 68 48 CALM 29.95R HX 93 VIDALIA SUNNY 91 66 43 W5 29.93S HX 94 EASTMAN FAIR 92 47 21 CALM 29.96R HAZLEHURST FAIR 94 42 16 CALM 29.92S HX 90 ALMA MOSUNNY 94 64 37 W6 29.92S HX 95 WAYCROSS CLOUDY 91 71 51 S5 29.93R HX 98 JESUP MOCLDY 91 72 52 CALM 29.93R HX 98 BAXLEY FAIR 91 63 38 CALM 29.92S HX 92 BRUNSWICK PTSUNNY 79 73 83 S6 29.95R SAINT SIMONS CLOUDY 82 76 81 SE5 29.93F $$ SCZ027-028-034-036>038-045-046-048>050-GAZ119-141-200000- ...LAKE AND SUPPLEMENTAL COASTAL OBSERVATIONS... STATION/POSITION TIME TEMP WIND PRES WAVE SWELL AIR SEA DIR/SP/G HT/PER HT/PER/DIR (UTC) (F) (DEG/KT/KT) (MB) (FT/S) (FT/S/D) WINYAH BAY 2245 86 170/ 11 1013.0S LAKE MURRAY 2250 91 170/ 4/ 5 1011.9R ACE BASIN NERRS 2245 88 CALM 1013.0S FORT PULASKI 2300 85 87 190/ 7/ 10 1013.8 SAPELO ISLAND 2300 83 190/ 7 1013.0 $$ ANZ835-935-AMZ111-154-330-350-352-354-370-450-454-472-200000- ...C-MAN AND BUOY OBSERVATIONS... STATION/POSITION TIME TEMP WIND PRES WAVE SWELL AIR SEA DIR/SP/G HT/PER HT/PER/DIR (UTC) (F) (DEG/KT/KT) (MB) (FT/S) (FT/S/D) BUOY 41004 2310 84 85 210/ 12/ 16 1013.6 BUOY 41008 2250 84 86 180/ 12/ 14 1013.1F 2/ 9 2/110/ 9 FOLLY BEACH CMAN 2300 85 200/ 11/ 13 1014.3R CAPERS NEARSHORE 2308 83 87 210/ 14/ 17 1013.2R FRIPP NEARSHORE 2308 85 190/ 12/ 16 1013.1R STATION/POSITION TIME TEMP WIND PRES WAVE SWELL AIR SEA DIR/SP/G HT/PER HT/PER/DIR (UTC) (F) (DEG/KT/KT) (MB) (FT/S) (FT/S/D) 5E ST. MARYS GA 2300 85 N/A 2/ 8 FRYING PAN BUOY 2310 84 84 220/ 10/ 14 1014.1 BUOY 41025 2250 77 84 210/ 8/ 10 1014.0R 4/ 4 3/240/ 4 CAPE LOOKOUT NC 2300 78 90/ 9/ 9 1014.0F BUOY 41002 2250 84 85 200/ 12/ 14 1016.2R 4/ 8 3/ 90/ 8 BUOY 41010 2310 85 86 130/ 8/ 12 1014.9 ST AUGUSTINE FL 2300 84 84 150/ 14/ 15 1013.9F $$

USA.gov is the U.S. government's official web portal to all federal, state and local government web resources and services.